Home   Weather   Aschersleben   Past weeks
Flag for Germany

Past Weather in Aschersleben, Saxony-Anhalt, Germany — Yesterday and Last 2 Weeks

Now
37 °F

Overcast.


Feels Like: 35 °F
Forecast: 41 / 27 °F
Wind: 3 mph from South

Location: Leipzig-Schkeuditz

Current Time: Jan 23, 2020 at 11:45:03 am

Latest Report: Jan 23, 2020 at 11:20 am


Visibility: 6 mi

Pressure: 30.54 "Hg

Humidity: 93%

Dew Point: 36 °F

Location of AscherslebenLocation

Past Weather in Aschersleben — Graph

°F

Aschersleben Temperature Yesterday

Maximum temperature yesterday: 36 °F (at 12:50 pm)
Minimum temperature yesterday: 25 °F (at 3:50 am)
Average temperature yesterday: 32 °F

High & Low Weather Summary for the Past Weeks

 TemperatureHumidityPressure
High54 °F (Jan 15, 11:50 am)100% (Jan 9, 12:50 am)30.92 "Hg (Jan 9, 12:50 am)
Low25 °F (Jan 22, 3:50 am)51% (Jan 15, 1:20 pm)29.86 "Hg (Jan 10, 1:50 am)
Average41 °F83%30.28 "Hg
* Reported Jan 8 10:20 am — Jan 23 10:20 am, Aschersleben. Weather by CustomWeather, © 2020

Note: Actual official high and low records may vary slightly from our data, if they occured in-between our weather recording intervals... More about our weather records

Aschersleben Weather History for the Previous 24 Hours

Scroll right to see more
 ConditionsComfort  
Time TempWeatherWind HumidityBarometerVisibility
10:20 am
Thu, Jan 23
37 °FOvercast.3 mph93%30.54 "Hg4 mi
9:50 am37 °FOvercast.3 mph93%30.54 "Hg4 mi
9:20 am36 °FOvercast.6 mph93%30.54 "Hg4 mi
8:50 am36 °FOvercast.6 mph93%30.54 "Hg4 mi
8:20 am36 °FOvercast.5 mph93%30.54 "Hg3 mi
7:50 am36 °FOvercast.3 mph93%30.54 "Hg4 mi
7:20 am36 °FOvercast.5 mph93%30.54 "Hg4 mi
6:50 am36 °FOvercast.3 mph93%30.54 "Hg4 mi
6:20 am36 °FOvercast.6 mph93%30.54 "Hg4 mi
5:50 am36 °FOvercast.6 mph93%30.54 "Hg4 mi
5:20 am36 °FOvercast.6 mph93%30.54 "Hg4 mi
4:50 am36 °FPassing clouds.7 mph93%30.54 "Hg4 mi
4:20 am36 °FPassing clouds.7 mph93%30.54 "Hg4 mi
3:50 am36 °FPassing clouds.6 mph93%30.54 "Hg4 mi
3:20 am36 °FPassing clouds.6 mph93%30.57 "Hg4 mi
2:50 am36 °FPassing clouds.6 mph93%30.57 "Hg4 mi
2:20 am36 °FPassing clouds.7 mph93%30.57 "Hg4 mi
1:50 am36 °FPassing clouds.7 mph93%30.57 "Hg4 mi
1:20 am34 °FPassing clouds.7 mph100%30.57 "Hg4 mi
12:50 am34 °FPassing clouds.7 mph100%30.57 "Hg4 mi
12:20 am34 °FPassing clouds.7 mph100%30.57 "Hg4 mi
11:50 pm
Wed, Jan 22
36 °FOvercast.7 mph93%30.57 "Hg4 mi
11:20 pm36 °FOvercast.7 mph93%30.57 "Hg4 mi
10:50 pm36 °FOvercast.7 mph93%30.57 "Hg4 mi
10:20 pm36 °FOvercast.8 mph93%30.57 "Hg4 mi
9:50 pm36 °FOvercast.8 mph93%30.57 "Hg4 mi
9:20 pm36 °FOvercast.8 mph93%30.54 "Hg4 mi
8:50 pm36 °FOvercast.8 mph93%30.54 "Hg4 mi
8:20 pm36 °FFog.9 mph93%30.54 "Hg3 mi
7:50 pm36 °FFog.9 mph93%30.54 "Hg3 mi
7:20 pm36 °FFog.8 mph93%30.54 "Hg3 mi
6:50 pm36 °FFog.9 mph93%30.54 "Hg3 mi
6:20 pm36 °FFog.12 mph93%30.51 "Hg3 mi
5:50 pm36 °FFog.9 mph93%30.51 "Hg3 mi
5:20 pm36 °FFog.10 mph93%30.51 "Hg2 mi
4:50 pm36 °FFog.10 mph93%30.51 "Hg1 mi
4:20 pm36 °FFog.9 mph100%30.48 "Hg1 mi
3:50 pm36 °FFog.10 mph100%30.48 "Hg1 mi
3:20 pm36 °FDrizzle. Partly sunny.12 mph100%30.48 "Hg1 mi
2:50 pm36 °FDrizzle. Partly sunny.12 mph100%30.48 "Hg1 mi
2:20 pm36 °FDrizzle. Partly sunny.13 mph93%30.48 "Hg1 mi
1:50 pm36 °FDrizzle. Partly sunny.13 mph93%30.48 "Hg1 mi
1:20 pm34 °FDrizzle. Partly sunny.15 mph100%30.51 "Hg2 mi
12:50 pm36 °FPartly sunny.14 mph87%30.48 "Hg5 mi
12:20 pm34 °FPartly sunny.14 mph87%30.51 "HgN/A
11:50 am34 °FPartly sunny.13 mph87%30.51 "HgN/A
11:20 am32 °FPartly sunny.12 mph93%30.51 "Hg5 mi
Weather by CustomWeather, © 2020

See weather overview

Advertising